When you browse on this site, cookies collect data to enhance your experience and personalize the content and advertising you see.
Visit our Privacy Policy to learn more. By continuing to use the site, you agree to this use of cookies and data.
  • In Österreich
  • Länderverzeichnis
  • Für 7 Tage
  • Wassertemperatur
  • Satellitenkarten
  • Wetterkarte
  • News
  • Widgets
  • user-avatar
    Anmelden

    Stündliche Wetter Tirana

    Heute, 16 Januar, Mittwoch

    Zeit Temperatur Niederschläge Wind Luftdruck Luftfeuchtigkeit
    00:00 -2°C° 0 mm 4 m/S 759 mmHg 50%
    01:00 -1°C° 0 mm 3 m/S 758 mmHg 49%
    02:00 -1°C° 0 mm 3 m/S 758 mmHg 48%
    03:00 -1°C° 0 mm 3 m/S 759 mmHg 48%
    04:00 -1°C° 0 mm 2 m/S 759 mmHg 47%
    05:00 -1°C° 0 mm 2 m/S 759 mmHg 46%
    06:00 -1°C° 0 mm 2 m/S 759 mmHg 44%
    07:00 -1°C° 0 mm 2 m/S 759 mmHg 43%
    08:00 +1°C° 0 mm 3 m/S 759 mmHg 40%
    09:00 +3°C° 0 mm 3 m/S 759 mmHg 36%
    10:00 +4°C° 0 mm 3 m/S 759 mmHg 33%
    11:00 +6°C° 0 mm 2 m/S 759 mmHg 36%
    12:00 +7°C° 0 mm 2 m/S 759 mmHg 39%
    13:00 +9°C° 0 mm 1 m/S 759 mmHg 42%
    14:00 +8°C° 0 mm 1 m/S 759 mmHg 47%
    15:00 +8°C° 0 mm 1 m/S 759 mmHg 52%
    16:00 +7°C° 0 mm 1 m/S 759 mmHg 57%
    17:00 +6°C° 0 mm 1 m/S 759 mmHg 59%
    18:00 +4°C° 0 mm 2 m/S 759 mmHg 61%
    19:00 +3°C° 0 mm 2 m/S 759 mmHg 62%
    20:00 +2°C° 0 mm 3 m/S 759 mmHg 63%
    21:00 +2°C° 0 mm 3 m/S 760 mmHg 63%
    22:00 +2°C° 0 mm 3 m/S 760 mmHg 63%
    23:00 +2°C° 0 mm 3 m/S 760 mmHg 63%

    Morgen, 17 Januar, Donnerstag

    Zeit Temperatur Niederschläge Wind Luftdruck Luftfeuchtigkeit
    00:00 +2°C° 0 mm 3 m/S 760 mmHg 63%
    01:00 +2°C° 0 mm 3 m/S 760 mmHg 62%
    02:00 +2°C° 0 mm 3 m/S 759 mmHg 62%
    03:00 +2°C° 0 mm 3 m/S 759 mmHg 62%
    04:00 +2°C° 0 mm 3 m/S 759 mmHg 61%
    05:00 +2°C° 0 mm 3 m/S 759 mmHg 61%
    06:00 +2°C° 0 mm 3 m/S 759 mmHg 61%
    07:00 +2°C° 0 mm 3 m/S 759 mmHg 61%
    08:00 +4°C° 0 mm 3 m/S 758 mmHg 57%
    09:00 +7°C° 0 mm 3 m/S 758 mmHg 52%
    10:00 +9°C° 0 mm 3 m/S 758 mmHg 48%
    11:00 +10°C° 0 mm 3 m/S 758 mmHg 44%
    12:00 +11°C° 0 mm 3 m/S 757 mmHg 40%
    13:00 +12°C° 0 mm 3 m/S 757 mmHg 37%
    14:00 +11°C° 0 mm 3 m/S 757 mmHg 41%
    15:00 +10°C° 0 mm 3 m/S 757 mmHg 46%
    16:00 +10°C° 0 mm 3 m/S 757 mmHg 51%
    17:00 +9°C° 0 mm 3 m/S 757 mmHg 50%
    18:00 +7°C° 0 mm 4 m/S 757 mmHg 49%
    19:00 +6°C° 0 mm 4 m/S 757 mmHg 49%
    20:00 +6°C° 0 mm 4 m/S 757 mmHg 49%
    21:00 +6°C° 0 mm 5 m/S 757 mmHg 49%
    22:00 +6°C° 0 mm 5 m/S 757 mmHg 49%
    23:00 +6°C° 0 mm 5 m/S 757 mmHg 54%

    übermorgen, 18 Januar, Freitag

    Zeit Temperatur Niederschläge Wind Luftdruck Luftfeuchtigkeit
    00:00 +6°C° 0 mm 5 m/S 757 mmHg 58%
    01:00 +6°C° 0 mm 5 m/S 756 mmHg 62%
    02:00 +6°C° 0 mm 5 m/S 756 mmHg 64%
    03:00 +6°C° 0 mm 4 m/S 756 mmHg 66%
    04:00 +7°C° 0 mm 4 m/S 755 mmHg 68%
    05:00 +6°C° 0.2 mm 4 m/S 755 mmHg 71%
    06:00 +6°C° 0.2 mm 4 m/S 755 mmHg 75%
    07:00 +6°C° 0.2 mm 5 m/S 755 mmHg 78%
    08:00 +7°C° 0 mm 5 m/S 755 mmHg 75%
    09:00 +8°C° 0 mm 5 m/S 755 mmHg 72%
    10:00 +10°C° 0 mm 4 m/S 756 mmHg 68%
    11:00 +10°C° 0 mm 5 m/S 755 mmHg 68%
    12:00 +12°C° 0 mm 5 m/S 755 mmHg 67%
    13:00 +13°C° 0 mm 5 m/S 755 mmHg 66%
    14:00 +13°C° 0.5 mm 4 m/S 755 mmHg 69%
    15:00 +12°C° 0.5 mm 4 m/S 755 mmHg 72%
    16:00 +12°C° 0.5 mm 4 m/S 755 mmHg 75%
    17:00 +11°C° 0.4 mm 4 m/S 755 mmHg 76%
    18:00 +10°C° 0.4 mm 4 m/S 755 mmHg 78%
    19:00 +8°C° 0.4 mm 4 m/S 755 mmHg 79%
    20:00 +8°C° 0.1 mm 3 m/S 756 mmHg 79%
    21:00 +8°C° 0.1 mm 3 m/S 756 mmHg 78%
    22:00 +7°C° 0.1 mm 3 m/S 756 mmHg 77%
    23:00 +7°C° 0 mm 3 m/S 756 mmHg 76%

    19 Januar, Samstag

    Zeit Temperatur Niederschläge Wind Luftdruck Luftfeuchtigkeit
    00:00 +7°C° 0 mm 3 m/S 756 mmHg 75%
    01:00 +7°C° 0 mm 3 m/S 756 mmHg 74%
    02:00 +7°C° 0 mm 3 m/S 756 mmHg 74%
    03:00 +7°C° 0 mm 3 m/S 755 mmHg 73%
    04:00 +7°C° 0 mm 3 m/S 755 mmHg 73%
    05:00 +7°C° 0 mm 3 m/S 755 mmHg 73%
    06:00 +7°C° 0 mm 3 m/S 755 mmHg 73%
    07:00 +5°C° 0 mm 4 m/S 755 mmHg 73%
    08:00 +8°C° 0 mm 3 m/S 755 mmHg 69%
    09:00 +10°C° 0 mm 3 m/S 755 mmHg 65%
    10:00 +11°C° 0 mm 3 m/S 755 mmHg 61%
    11:00 +12°C° 0 mm 3 m/S 755 mmHg 58%
    12:00 +14°C° 0 mm 3 m/S 755 mmHg 55%
    13:00 +16°C° 0 mm 3 m/S 754 mmHg 52%
    14:00 +14°C° 0.3 mm 3 m/S 754 mmHg 57%
    15:00 +13°C° 0.3 mm 3 m/S 754 mmHg 61%
    16:00 +12°C° 0.3 mm 4 m/S 753 mmHg 66%
    17:00 +12°C° 0.6 mm 4 m/S 754 mmHg 69%
    18:00 +11°C° 0.6 mm 4 m/S 754 mmHg 72%
    19:00 +9°C° 0.6 mm 5 m/S 754 mmHg 75%
    20:00 +9°C° 0.1 mm 5 m/S 754 mmHg 75%
    21:00 +8°C° 0.1 mm 5 m/S 754 mmHg 75%
    22:00 +8°C° 0.1 mm 5 m/S 754 mmHg 76%
    23:00 +8°C° 0.2 mm 5 m/S 754 mmHg 76%

    20 Januar, Sonntag

    Zeit Temperatur Niederschläge Wind Luftdruck Luftfeuchtigkeit
    00:00 +8°C° 0.2 mm 5 m/S 754 mmHg 76%
    01:00 +8°C° 0.2 mm 5 m/S 753 mmHg 76%
    02:00 +7°C° 0.3 mm 5 m/S 753 mmHg 76%
    03:00 +7°C° 0.3 mm 5 m/S 753 mmHg 76%
    04:00 +7°C° 0.3 mm 5 m/S 752 mmHg 76%
    05:00 +7°C° 0.2 mm 5 m/S 753 mmHg 75%
    06:00 +7°C° 0.2 mm 5 m/S 753 mmHg 74%
    07:00 +7°C° 0.2 mm 5 m/S 753 mmHg 74%
    08:00 +8°C° 0.3 mm 5 m/S 753 mmHg 70%
    09:00 +9°C° 0.3 mm 5 m/S 753 mmHg 66%
    10:00 +12°C° 0.3 mm 5 m/S 753 mmHg 63%
    11:00 +12°C° 0.5 mm 5 m/S 753 mmHg 63%
    12:00 +13°C° 0.5 mm 5 m/S 753 mmHg 63%
    13:00 +13°C° 0.5 mm 6 m/S 753 mmHg 63%
    14:00 +13°C° 0.7 mm 5 m/S 752 mmHg 69%
    15:00 +12°C° 0.7 mm 4 m/S 752 mmHg 74%
    16:00 +11°C° 0.7 mm 4 m/S 752 mmHg 80%
    17:00 +10°C° 0.4 mm 3 m/S 753 mmHg 83%
    18:00 +10°C° 0.4 mm 3 m/S 753 mmHg 86%
    19:00 +9°C° 0.4 mm 2 m/S 754 mmHg 89%
    20:00 +9°C° 0.3 mm 2 m/S 754 mmHg 89%
    21:00 +8°C° 0.3 mm 2 m/S 754 mmHg 89%
    22:00 +8°C° 0.3 mm 2 m/S 754 mmHg 89%
    23:00 +8°C° 0.1 mm 2 m/S 755 mmHg 89%

    21 Januar, Montag

    Zeit Temperatur Niederschläge Wind Luftdruck Luftfeuchtigkeit
    00:00 +8°C° 0.1 mm 2 m/S 755 mmHg 88%
    01:00 +7°C° 0.1 mm 3 m/S 755 mmHg 87%
    02:00 +7°C° 0 mm 3 m/S 755 mmHg 85%
    03:00 +7°C° 0 mm 3 m/S 755 mmHg 84%
    04:00 +7°C° 0 mm 3 m/S 755 mmHg 83%
    05:00 +7°C° 0 mm 3 m/S 755 mmHg 81%
    06:00 +5°C° 0 mm 3 m/S 755 mmHg 80%
    07:00 +5°C° 0 mm 3 m/S 756 mmHg 79%
    08:00 +8°C° 0 mm 3 m/S 756 mmHg 73%
    09:00 +9°C° 0 mm 2 m/S 756 mmHg 68%
    10:00 +10°C° 0 mm 2 m/S 756 mmHg 62%
    11:00 +12°C° 0 mm 2 m/S 756 mmHg 59%
    12:00 +13°C° 0 mm 2 m/S 756 mmHg 55%
    13:00 +14°C° 0 mm 1 m/S 756 mmHg 51%
    14:00 +13°C° 0 mm 2 m/S 756 mmHg 55%
    15:00 +13°C° 0 mm 2 m/S 756 mmHg 59%
    16:00 +12°C° 0 mm 2 m/S 756 mmHg 62%
    17:00 +11°C° 0 mm 3 m/S 756 mmHg 65%
    18:00 +10°C° 0 mm 3 m/S 757 mmHg 68%
    19:00 +8°C° 0 mm 4 m/S 757 mmHg 71%
    20:00 +8°C° 0 mm 4 m/S 757 mmHg 71%
    21:00 +7°C° 0 mm 4 m/S 757 mmHg 71%
    22:00 +7°C° 0 mm 4 m/S 757 mmHg 70%
    23:00 +7°C° 0.1 mm 4 m/S 757 mmHg 69%
    Mehr zeigen